Theta_e
314 314 314 314 313 313 313 314 314 314 314 314 313 313 313 315 316 309 303 309 316 323 323 312 310 309 306 308 315 314 303 299 303 304 307 312 309 314 316 314 316 319 318 324 334
313 313 313 314 314 313 313 313 313 313 313 313 314 313 313 314 309 302 314 314 318 319 310 307 304 305 302 304 310 308 303 302 307 310 306 311 311 312 310 311 313 317 322 330 332
312 312 313 313 313 313 313 313 313 313 313 313 313 313 313 312 302 300 320 318 316 316 310 309 307 303 299 301 305 306 302 307 307 309 307 306 310 314 310 309 313 314 319 328 327
312 312 312 313 313 313 313 313 313 313 313 313 313 313 313 309 288 307 320 319 316 312 308 306 304 299 297 296 301 300 305 307 309 308 304 304 309 310 311 312 315 318 321 327 325
311 311 311 312 312 312 313 313 313 313 313 313 312 312 308 299 298 308 316 315 310 308 304 302 300 300 294 297 298 297 301 306 309 309 307 308 307 307 309 315 317 316 320 325 327
311 311 311 311 311 312 312 313 313 313 313 312 312 312 304 293 306 309 308 310 310 309 305 305 301 302 298 295 295 300 301 302 306 307 307 304 305 307 308 311 312 316 318 323 325
310 310 310 310 311 311 311 312 313 313 313 312 311 308 301 298 308 309 308 306 310 310 306 308 308 305 301 296 299 298 295 300 302 305 305 306 300 302 308 311 310 315 317 321 324
309 309 309 310 310 311 311 312 312 312 311 311 310 305 296 307 310 309 311 307 307 308 308 309 309 304 301 303 298 294 295 290 299 302 304 304 296 304 308 308 308 309 313 319 323
308 309 309 310 310 310 311 312 311 309 309 309 306 302 295 309 303 308 309 306 307 305 305 305 303 299 300 295 292 292 287 289 292 302 302 301 298 305 306 306 307 310 310 315 321
307 308 308 309 309 310 310 310 307 307 306 308 306 297 301 297 302 304 307 309 304 303 299 299 298 294 294 292 283 287 287 290 291 296 300 299 299 304 303 304 306 308 310 312 317
307 307 307 307 309 310 308 305 299 298 300 294 295 295 298 303 305 301 306 304 303 299 292 294 290 287 290 292 293 292 290 289 293 298 298 297 298 301 302 302 303 306 308 309 314
307 308 307 308 308 308 307 299 298 299 291 298 298 298 302 302 296 300 304 297 295 290 293 291 285 290 292 292 291 291 289 289 294 297 297 297 297 301 303 302 304 305 307 309 311
307 307 308 308 307 306 303 300 306 304 291 295 297 297 299 301 296 296 299 298 293 290 290 287 289 292 291 289 288 289 288 289 290 295 298 296 293 297 302 304 305 305 306 308 309
306 307 308 307 302 304 300 304 306 304 287 288 293 298 299 300 293 302 302 297 293 288 289 288 291 289 288 286 289 285 293 291 291 290 287 296 284 293 298 300 302 304 304 306 307
305 306 308 306 302 299 302 306 306 300 279 289 292 302 299 295 296 297 304 297 290 290 288 286 288 287 285 287 289 288 293 292 291 288 289 291 288 292 298 296 300 302 304 305 306
304 305 307 305 305 303 306 305 302 285 277 284 291 290 292 293 294 296 295 297 293 287 289 289 293 290 289 291 291 294 292 291 291 288 283 288 289 289 293 296 299 301 300 303 304
305 306 305 306 299 306 306 299 285 280 286 284 285 289 289 288 289 291 290 288 286 283 282 286 286 291 293 288 292 292 288 281 279 280 280 288 287 290 296 296 295 295 295 297 299
305 302 302 304 307 306 301 290 278 278 281 288 287 288 285 288 288 289 289 285 288 286 286 283 281 287 291 289 287 288 288 282 275 277 280 287 283 289 295 294 296 296 297 298 298
303 304 303 304 306 303 294 283 281 282 285 285 286 283 284 287 287 287 288 286 288 288 283 283 282 290 291 292 291 288 285 291 283 280 282 285 289 294 294 293 293 295 297 298 299
301 299 299 304 304 300 287 283 283 287 288 287 281 284 280 283 283 284 286 289 288 290 291 287 281 287 288 292 293 289 292 284 286 277 276 282 284 286 289 290 291 294 296 297 299
299 292 300 304 301 292 284 283 282 287 288 285 283 282 283 283 284 283 285 288 291 290 291 289 286 285 288 286 286 287 286 287 286 284 278 277 282 288 289 291 291 295 296 297 298
297 284 300 303 287 284 284 282 284 285 289 288 288 286 284 285 283 283 283 287 292 292 287 290 287 282 284 290 290 289 287 288 282 280 283 280 282 291 291 292 294 295 296 297 297
285 287 300 300 283 283 281 282 284 284 286 286 285 288 288 283 281 285 286 291 292 291 288 290 285 281 282 286 288 286 289 288 288 287 282 280 283 292 291 292 295 295 295 295 296
287 283 289 293 291 286 282 282 282 287 285 286 286 287 285 283 286 284 284 289 291 292 292 292 286 284 280 282 285 284 286 289 287 282 283 283 285 289 289 290 294 295 295 295 296
286 285 286 282 283 286 286 284 282 281 285 287 285 285 283 280 282 281 285 286 289 291 290 288 282 284 286 288 287 286 286 287 285 286 282 286 286 289 290 291 294 295 295 294 294
285 285 287 283 286 285 285 282 282 283 284 283 282 284 285 282 282 280 284 284 284 288 287 289 282 284 283 285 286 285 287 287 287 287 287 287 286 291 292 293 294 294 294 294 294
293 293 291 285 282 283 283 284 283 286 287 287 286 284 284 285 288 289 290 290 288 286 285 283 281 281 280 283 283 280 284 286 288 289 288 284 289 291 290 291 293 294 294 294 294
Wind_Speed
8 7 8 8 8 10 10 11 11 11 13 14 15 16 17 19 19 13 11 7 11 13 17 12 11 10 9 8 10 5 9 15 20 18 16 3 6 5 5 5 8 8 3 6 21
7 9 9 8 9 9 11 11 11 11 13 13 15 16 18 20 17 14 7 4 9 15 12 12 11 9 9 9 8 12 14 22 18 14 13 11 8 8 5 11 11 9 6 13 18
6 8 9 9 9 10 11 11 11 12 12 14 15 16 19 19 11 4 10 10 11 15 11 11 9 8 12 14 17 11 22 17 19 15 11 12 9 8 8 12 13 14 13 17 16
7 8 9 9 9 10 11 12 12 12 13 13 13 16 18 11 5 9 5 10 16 13 11 10 7 7 9 13 15 23 21 19 19 11 9 12 11 11 11 10 6 9 16 18 19
7 8 9 9 10 11 12 13 13 12 12 12 12 13 10 5 4 9 8 12 16 11 10 9 9 9 11 11 16 24 22 18 20 17 13 15 12 13 11 9 7 3 9 17 17
6 8 9 10 11 12 13 14 14 13 13 12 10 10 7 7 4 6 8 11 6 7 6 6 5 7 10 14 17 12 14 23 21 21 17 16 17 16 12 7 9 6 10 14 16
6 7 8 10 11 12 14 15 15 13 13 12 9 5 8 13 11 11 11 9 6 6 7 3 8 7 7 11 13 17 20 17 22 23 17 11 20 26 18 12 6 7 9 12 15
6 7 9 10 12 14 16 17 16 15 12 7 3 3 7 4 9 9 9 8 10 13 11 12 11 12 13 11 16 20 18 20 21 22 23 15 26 21 16 16 16 14 9 10 13
6 7 8 10 12 14 16 18 16 6 4 2 5 3 4 2 4 8 9 9 8 6 10 11 13 14 13 14 15 14 18 24 23 20 20 20 21 21 5 12 18 16 14 10 11
6 8 9 11 12 15 18 13 4 3 4 3 2 4 4 11 11 12 9 6 4 5 6 8 7 13 13 14 16 15 19 22 22 23 20 21 19 13 5 8 13 12 15 12 11
5 7 9 10 11 14 11 3 2 4 5 4 7 6 9 14 7 3 3 5 4 4 7 8 11 16 18 19 19 17 20 22 21 13 14 21 20 21 8 8 11 13 11 10 12
6 7 9 10 11 8 5 5 5 4 7 4 7 7 8 6 6 8 2 4 3 7 3 8 14 17 18 18 17 17 21 16 16 10 3 15 18 18 18 14 12 8 11 12 10
5 7 10 12 1 2 8 7 4 1 4 2 2 4 4 4 7 6 2 3 8 12 10 12 11 6 9 20 20 17 18 13 14 6 11 12 16 15 16 16 14 5 8 7 8
4 7 9 11 4 1 3 2 4 2 2 6 1 2 4 7 3 4 2 6 3 8 8 11 10 17 17 14 15 23 20 16 13 10 9 11 12 19 21 17 16 12 11 10 8
3 6 8 9 2 2 3 5 2 3 2 9 2 3 8 4 10 4 5 3 11 11 4 4 6 9 15 22 18 17 8 12 16 14 12 9 6 12 6 14 17 12 10 8 7
2 5 7 2 1 4 4 5 3 2 1 4 4 7 10 3 4 5 3 2 3 3 5 16 6 6 4 9 12 16 9 8 8 11 11 14 9 8 10 7 11 5 2 5 7
2 5 4 2 2 4 4 3 2 2 2 5 5 9 10 10 4 5 6 5 4 6 2 3 5 5 9 8 11 14 8 4 4 5 10 2 9 13 4 3 2 2 1 0 2
1 3 2 2 4 5 3 1 3 2 2 4 5 12 4 11 3 10 10 9 3 4 5 5 3 2 5 11 5 13 14 5 5 7 10 3 7 4 0 4 1 3 3 3 5
3 1 1 3 4 3 2 2 2 2 2 6 5 3 5 6 7 7 9 8 5 6 6 6 1 3 5 7 7 8 10 5 4 2 5 7 8 6 5 4 2 3 4 5 7
1 2 1 5 5 3 2 1 1 1 1 1 5 3 4 8 8 10 10 4 7 2 6 3 6 3 4 10 10 6 9 5 4 3 4 1 6 7 4 3 4 4 5 6 7
2 2 4 5 4 2 1 2 1 1 2 1 1 4 4 6 6 4 7 4 10 7 6 8 4 3 1 2 3 6 6 6 6 2 3 4 2 7 7 5 3 6 6 7 8
2 1 3 3 0 1 3 3 1 2 2 2 3 4 5 7 5 5 6 3 12 11 5 4 5 5 4 5 4 11 8 10 8 5 4 2 3 5 5 5 5 7 7 8 9
4 0 2 2 3 3 3 2 2 3 3 3 3 3 3 4 5 5 7 6 10 11 9 4 3 5 3 5 5 6 10 9 10 8 8 5 2 5 5 6 6 9 8 8 9
4 3 0 1 1 2 4 3 3 4 2 2 2 3 4 5 4 6 8 4 10 8 11 4 4 7 8 6 6 4 9 11 10 9 10 8 11 7 4 4 6 9 9 9 9
2 1 1 4 4 3 2 5 4 4 3 3 3 6 2 3 6 4 4 11 6 4 7 5 4 6 11 12 9 10 11 10 14 15 14 10 11 6 3 5 7 9 10 9 8
5 4 2 3 6 6 5 5 5 3 5 3 3 3 3 4 5 7 11 9 4 7 9 4 5 6 2 8 9 11 11 10 11 14 16 12 13 2 1 5 8 10 10 9 8
2 1 3 7 6 6 5 7 8 5 5 4 5 3 5 7 6 9 9 11 12 10 6 5 6 7 3 8 9 6 6 9 9 9 11 14 12 6 4 7 10 11 9 8 8
Wind_Direction
9 2 0 358 5 6 3 360 359 358 357 355 352 349 343 332 321 310 300 1 356 338 304 317 284 268 265 251 240 250 244 243 241 243 261 259 260 161 335 254 206 179 335 62 136
10 1 349 348 348 354 354 357 352 353 352 354 350 346 335 335 325 309 345 34 16 341 348 347 329 325 257 235 224 219 232 239 249 257 258 275 279 281 230 219 202 187 118 129 146
11 356 347 344 344 341 344 349 348 343 349 351 353 347 334 330 316 51 96 49 1 330 334 315 303 280 261 243 231 229 241 240 244 239 237 268 252 236 244 255 230 212 168 155 166
3 352 347 338 336 334 336 338 338 341 343 348 349 343 333 322 349 17 179 323 331 314 311 312 311 276 253 239 235 248 252 245 247 227 240 237 255 254 237 245 10 320 165 166 179
6 359 352 344 335 329 327 326 328 333 336 337 340 345 334 305 284 358 331 300 306 304 294 301 294 299 265 275 263 255 249 246 249 251 245 253 238 249 257 253 245 296 169 181 185
14 3 354 343 338 336 328 323 321 323 326 322 329 317 299 277 45 349 338 312 311 301 297 271 307 314 290 280 281 287 286 252 246 243 236 248 250 249 249 250 243 206 204 197 198
5 358 350 340 335 333 328 318 314 319 313 304 303 287 267 256 317 317 311 280 290 330 326 21 340 290 322 279 263 283 283 264 247 239 226 228 251 240 241 229 225 201 220 213 204
359 356 343 338 336 331 325 316 315 319 308 315 256 188 264 325 324 307 325 311 270 268 275 290 298 295 272 275 280 276 253 252 234 234 237 226 249 230 224 242 237 243 221 205 213
359 350 345 338 336 329 322 316 319 320 328 323 168 251 290 311 303 338 340 325 322 289 268 277 276 267 280 251 262 243 255 236 251 227 220 209 242 246 186 214 242 233 233 218 209
7 355 350 343 337 331 320 319 338 252 245 139 142 226 214 332 319 304 297 318 301 312 254 234 242 251 243 242 245 257 248 246 254 231 209 226 238 239 154 221 222 236 234 211 216
5 352 346 344 341 335 332 314 302 186 28 333 311 294 298 326 309 317 333 298 265 250 270 230 236 241 250 248 267 262 282 274 242 254 229 232 240 230 175 226 218 236 235 221 209
353 349 341 336 335 338 338 58 51 356 310 277 278 272 285 324 315 26 297 293 257 271 273 258 245 261 277 277 275 257 257 278 292 275 238 256 238 238 223 219 220 202 218 221 214
352 349 339 333 76 26 71 73 10 315 271 286 293 294 333 322 342 346 300 321 277 276 259 256 268 309 294 271 252 237 254 231 270 291 250 261 253 236 241 237 237 214 246 246 208
4 351 343 341 207 68 93 81 324 272 330 353 40 88 308 311 246 335 302 291 267 280 277 277 287 255 250 258 263 259 222 247 261 291 250 201 260 219 225 222 228 230 222 221 214
17 354 350 352 347 199 59 330 11 207 224 349 8 8 299 11 327 62 26 307 268 257 233 240 290 267 232 239 239 255 266 242 247 227 282 231 251 255 202 231 217 218 221 202 198
8 348 334 223 258 57 327 322 197 255 126 340 315 333 352 10 351 324 331 42 353 291 240 260 301 274 252 256 223 267 246 240 240 247 250 253 246 233 197 232 230 214 311 178 184
330 355 318 296 338 324 297 213 271 302 344 348 338 332 325 2 322 330 305 296 307 305 247 196 217 246 233 276 201 229 230 178 197 209 239 3 237 244 97 96 7 341 92 19 138
44 319 47 11 317 313 258 179 244 73 311 0 322 314 341 5 349 333 326 -0 65 294 287 327 183 171 306 260 315 207 223 232 224 203 223 154 227 227 292 45 105 68 64 92 107
141 250 216 17 325 285 269 242 42 134 83 330 309 359 342 3 339 334 355 1 14 356 331 331 167 330 337 317 281 219 243 288 305 142 292 193 237 277 191 198 150 120 100 90 103
214 237 125 345 312 258 89 155 143 75 353 250 346 351 324 335 352 355 360 31 341 311 328 5 293 49 328 286 229 258 310 227 230 244 236 142 277 272 163 160 135 144 115 103 109
207 212 79 327 266 48 148 108 194 221 266 263 340 300 310 330 327 301 343 302 9 331 316 304 261 64 303 232 322 230 241 250 293 307 315 307 128 10 21 10 161 115 110 120 115
169 157 78 287 5 56 146 158 211 170 207 241 272 270 290 328 305 300 350 322 358 345 315 327 309 293 292 154 182 297 295 295 248 222 255 335 345 358 0 25 106 120 120 111 110
120 258 118 261 225 173 135 178 219 186 193 202 242 239 317 296 308 297 329 1 354 354 348 347 273 292 206 180 187 239 252 259 289 282 276 253 244 25 78 103 118 131 126 126 116
125 145 300 201 281 193 153 146 179 203 228 237 283 256 268 279 245 288 307 335 339 358 358 341 292 280 297 327 331 269 262 244 256 266 255 253 305 38 65 111 140 137 135 128 121
69 173 182 170 210 204 175 158 158 183 228 220 247 241 264 282 301 264 318 333 320 359 356 7 286 327 306 276 288 291 293 286 249 249 258 280 300 323 32 166 168 149 140 134 128
145 156 209 113 144 162 179 199 197 162 166 202 241 169 242 240 271 300 315 321 316 319 339 4 299 319 314 2 311 287 285 274 269 270 262 261 263 348 6 155 166 161 155 150 140
148 116 251 151 159 172 199 186 205 190 213 257 200 256 255 270 300 299 291 283 282 299 313 316 327 322 291 338 315 259 260 272 261 263 262 246 242 157 194 199 181 170 167 157 148